[[{"header":{"parameterUnit":"m.s-1","parameterCategory":1,"la1":30.2991,"la2":30.254,"lo1":-89.0895,"lo2":-89.0444,"dy":0.0017,"dx":0.0017,"nx":28,"ny":28,"refTime":"2023-10-30T03:00:00:Z","depth":0,"parameterNumber":2,"parameterNumberName":"U-component_of_WINDS"},"data":[0,0,0,0,0,0,0,0,0,0,0,0,0,0,0,0,0,0,0,0,0,0,0,0,0,0,0,0,0,0,0,0,0,0,0,0,0,0,0,0,0,0,0,0,0,0,0,0,0,0,0,0,0,0,0,0,0,0,0.9438,0.9438,0,0.9411,0.9411,0.941,0.941,0.941,0.941,0.9411,0.9381,0.9379,0.9378,0,0,0,0,0,0,0,0,0,0,0,0,0,0.9487,0.9486,0.9438,0.9438,0.9437,0.9411,0.9411,0.941,0.9409,0.941,0.941,0.9411,0.9381,0.938,0.9378,0,0,0,0,0,0,0,0,0,0,0,0,0,0.9464,0.9486,0.9438,0.9434,0.9433,0.9411,0.9411,0.941,0.9409,0.941,0.941,0.9411,0.9381,0.938,0.9378,0.9358,0,0,0.9373,0.9372,0,0,0,0,0,0,0,0,0.9465,0.9462,0.9435,0.9434,0.9433,0.9414,0.9417,0.9393,0.9409,0.9418,0.9411,0.9411,0.9391,0.9389,0.9382,0.9356,0.9355,0.9373,0.9372,0.9371,0.9371,0,0,0,0,0,0,0,0.9466,0.9463,0.9427,0.9434,0.9433,0.9433,0.943,0.9412,0.9402,0.9418,0.9417,0.9414,0.9391,0.9384,0.9382,0.9355,0.9373,0.9371,0.937,0.937,0.9312,0.9311,0,0,0,0,0,0,0.9469,0.9464,0.9428,0.9426,0.9451,0.9431,0.9428,0.942,0.9402,0.94,0.9414,0.9414,0.9387,0.9384,0.9381,0.9356,0.9371,0.937,0.9369,0.9312,0.9312,0.9311,0,0,0,0,0,0,0.947,0.9466,0.9429,0.9445,0.9441,0.943,0.942,0.9419,0.9412,0.94,0.9398,0.9409,0.9387,0.9383,0.9364,0.9355,0.9369,0.9367,0.9313,0.9312,0.9311,0.9307,0,0,0,0,0,0,0.9472,0.9466,0.9459,0.9445,0.944,0.9413,0.942,0.9418,0.941,0.941,0.9395,0.9392,0.9387,0.9366,0.9362,0.9353,0.9366,0.9314,0.9313,0.9312,0.9308,0.9306,0.9304,0,0,0,0,0,0.9473,0.9458,0.9458,0.9454,0.943,0.9412,0.9409,0.9404,0.9409,0.9401,0.9393,0.9393,0.9357,0.9365,0.936,0.935,0.9314,0.9313,0.9312,0.9308,0.9306,0.9305,0,0,0,0,0,0,0.9469,0.9456,0.9456,0.9436,0.9425,0.9412,0.9402,0.9402,0.9389,0.939,0.9384,0.938,0.9361,0.9354,0.9362,0.933,0.9336,0.9334,0.9335,0.9333,0.9332,0.9333,0.9365,0,0,0,0,0,0.9466,0.9453,0.9442,0.9425,0.942,0.9412,0.9404,0.9402,0.939,0.9385,0.9376,0.9365,0.9351,0.9342,0.9329,0.9307,0.9304,0.9298,0.9297,0.9296,0.9293,0.9282,0.928,0.9307,0.9307,0.9307,0,0,0.9458,0.945,0.9442,0.9424,0.9416,0.9403,0.9408,0.9394,0.9384,0.9383,0.9364,0.9358,0.9345,0.9325,0.9315,0.9318,0.9285,0.9294,0.9293,0.9291,0.9281,0.9278,0.9276,0.9306,0.9306,0.9307,0,0,0.9439,0.9431,0.9416,0.9408,0.9396,0.9391,0.9388,0.9376,0.9371,0.9353,0.9353,0.9341,0.9317,0.9308,0.93,0.9279,0.9279,0.9275,0.9266,0.9256,0.9253,0.9251,0.9244,0.9241,0.9273,0.9273,0.9273,0,0.9431,0.9411,0.9408,0.9394,0.9387,0.9387,0.9372,0.9364,0.9348,0.9342,0.9346,0.9318,0.9309,0.9287,0.9282,0.9276,0.9272,0.9276,0.9254,0.9252,0.925,0.9243,0.924,0.9273,0.9273,0.9273,0.9273,0,0.9402,0.9389,0.9379,0.9364,0.9356,0.9341,0.9336,0.9327,0.9326,0.9321,0.9303,0.9293,0.9278,0.9273,0.9271,0.9251,0.9253,0.9256,0.9261,0.9247,0.924,0.9237,0.9273,0.9273,0.9273,0.9273,0,0,0.9376,0.9363,0.9358,0.9353,0.934,0.933,0.9316,0.9303,0.9295,0.9285,0.9273,0.9254,0.9257,0.9248,0.9246,0.9236,0.9221,0.924,0.924,0.9236,0.9198,0.9196,0.9192,0.9221,0.922,0.922,0.9199,0,0.9354,0.933,0.9328,0.9306,0.9294,0.9295,0.9283,0.9274,0.927,0.9259,0.9253,0.924,0.9245,0.924,0.9231,0.9224,0.9213,0.9226,0.9209,0.9208,0.9211,0.9189,0.9185,0.9166,0.9197,0.9196,0.9196,0,0.9325,0.9315,0.9292,0.9283,0.9278,0.9267,0.9255,0.9245,0.9235,0.9233,0.9224,0.9223,0.9209,0.9217,0.9197,0.9206,0.92,0.9196,0.9195,0.9192,0.92,0.9184,0.916,0.9157,0.9191,0.9192,0.9192,0,0.9308,0.9289,0.9273,0.9268,0.9257,0.9249,0.9244,0.9235,0.9228,0.9218,0.9213,0.9201,0.9194,0.9185,0.9181,0.9187,0.9161,0.9168,0.9158,0.9158,0.9151,0.9151,0.9124,0.9149,0.9149,0.9149,0.9149,0,0.9282,0.9268,0.9265,0.9255,0.9239,0.9237,0.9222,0.9217,0.921,0.9199,0.92,0.9189,0.9185,0.9174,0.9171,0.9156,0.9153,0.915,0.9149,0.9149,0.9149,0.9143,0.9144,0.9148,0.9148,0.9148,0.9148,0,0.9259,0.9257,0.9239,0.9231,0.9229,0.9218,0.9211,0.9201,0.9198,0.9184,0.9181,0.9175,0.9163,0.9159,0.9143,0.9141,0.9122,0.9123,0.9126,0.9125,0.9115,0.9115,0.9082,0.9077,0.9106,0.9105,0.9105,0,0.9243,0.9232,0.9224,0.9217,0.9212,0.9201,0.9194,0.9193,0.9185,0.9175,0.9166,0.9154,0.9144,0.9124,0.9119,0.9107,0.9107,0.9096,0.9105,0.9106,0.9106,0.9106,0.9105,0.9094,0.9093,0.9093,0.9093,0,0.9214,0.9213,0.9203,0.9194,0.9186,0.9177,0.9169,0.9164,0.9161,0.9153,0.9141,0.9133,0.9119,0.9107,0.9095,0.909,0.9091,0.9091,0.9088,0.9087,0.9088,0.9087,0.912,0.9091,0.9091,0.9091,0.9091,0.9091,0.9193,0.9183,0.9176,0.9166,0.916,0.9153,0.9144,0.9141,0.9131,0.9119,0.9119,0.9106,0.9098,0.9084,0.9078,0.9068,0.907,0.9066,0.9064,0.9063,0.9062,0.9092,0.9066,0.9066,0.9066,0.9066,0.9066,0,0.9163,0.9159,0.9149,0.9139,0.9131,0.9135,0.9127,0.9119,0.9108,0.9101,0.9092,0.9079,0.9068,0.9062,0.9051,0.9044,0.9044,0.9041,0.9041,0.904,0.906,0.9064,0.9041,0.9041,0.9041,0.9041,0.9041,0.9041,0.9146,0.9131,0.913,0.9113,0.9109,0.9097,0.9092,0.9086,0.9081,0.9066,0.9057,0.9054,0.9048,0.9037,0.9027,0.9026,0.9021,0.9018,0.9017,0.9036,0.9038,0.904,0.9044,0.9017,0.9017,0.8997,0.8996,0.8996]},{"header":{"parameterUnit":"m.s-1","parameterCategory":1,"la1":30.2991,"la2":30.254,"lo1":-89.0895,"lo2":-89.0444,"dy":0.0017,"dx":0.0017,"nx":28,"ny":28,"refTime":"2023-10-30T03:00:00:Z","depth":0,"parameterNumber":3,"parameterNumberName":"V-component_of_WINDS"},"data":[0,0,0,0,0,0,0,0,0,0,0,0,0,0,0,0,0,0,0,0,0,0,0,0,0,0,0,0,0,0,0,0,0,0,0,0,0,0,0,0,0,0,0,0,0,0,0,0,0,0,0,0,0,0,0,0,0,0,-8.758,-8.7582,0,-8.7791,-8.7794,-8.7796,-8.7696,-8.769,-8.7685,-8.768,-8.789,-8.7901,-8.7911,0,0,0,0,0,0,0,0,0,0,0,0,0,-8.7082,-8.7092,-8.7579,-8.7582,-8.7585,-8.7791,-8.7794,-8.7797,-8.7697,-8.769,-8.7684,-8.7678,-8.7887,-8.7899,-8.7912,0,0,0,0,0,0,0,0,0,0,0,0,0,-8.7296,-8.7095,-8.7579,-8.756,-8.756,-8.779,-8.7794,-8.7797,-8.7698,-8.769,-8.7682,-8.7674,-8.7883,-8.7898,-8.7914,-8.8173,0,0,-8.7962,-8.7969,0,0,0,0,0,0,0,0,-8.7284,-8.7315,-8.756,-8.7562,-8.7562,-8.7709,-8.7695,-8.7923,-8.77,-8.7646,-8.768,-8.7671,-8.7836,-8.7855,-8.7912,-8.8183,-8.8192,-8.7964,-8.7973,-8.798,-8.7985,0,0,0,0,0,0,0,-8.727,-8.7305,-8.7663,-8.7564,-8.7565,-8.7539,-8.756,-8.7738,-8.7783,-8.765,-8.7643,-8.767,-8.7835,-8.7897,-8.7917,-8.8195,-8.7963,-8.7977,-8.7987,-8.7993,-8.8687,-8.8696,0,0,0,0,0,0,-8.7256,-8.7293,-8.7656,-8.7669,-8.7401,-8.7554,-8.7578,-8.767,-8.7781,-8.779,-8.7676,-8.7664,-8.7874,-8.7898,-8.7924,-8.8235,-8.798,-8.7995,-8.8004,-8.8679,-8.8689,-8.8699,0,0,0,0,0,0,-8.7246,-8.729,-8.7648,-8.748,-8.7523,-8.7571,-8.7675,-8.7678,-8.7741,-8.7801,-8.7808,-8.7732,-8.7869,-8.7901,-8.8112,-8.824,-8.8002,-8.8017,-8.8668,-8.8682,-8.8694,-8.8858,0,0,0,0,0,0,-8.7232,-8.7287,-8.7387,-8.7483,-8.7533,-8.7835,-8.7683,-8.7688,-8.7769,-8.7755,-8.7855,-8.7864,-8.7865,-8.8089,-8.8128,-8.8258,-8.8029,-8.8657,-8.8674,-8.869,-8.8842,-8.8876,-8.8905,0,0,0,0,0,-8.7215,-8.7423,-8.7393,-8.7437,-8.766,-8.7843,-8.7871,-8.787,-8.778,-8.788,-8.7919,-8.7861,-8.822,-8.8111,-8.8154,-8.8291,-8.8649,-8.8669,-8.8689,-8.8828,-8.8869,-8.8904,0,0,0,0,0,0,-8.7339,-8.7436,-8.7403,-8.7649,-8.7739,-8.7825,-8.7952,-8.7913,-8.8029,-8.8011,-8.8002,-8.8025,-8.8244,-8.8288,-8.8165,-8.8547,-8.842,-8.845,-8.8511,-8.8551,-8.8582,-8.8567,-8.8042,0,0,0,0,0,-8.7396,-8.7539,-8.7614,-8.7824,-8.7871,-8.7904,-8.7984,-8.7975,-8.8067,-8.8103,-8.8158,-8.8247,-8.838,-8.8467,-8.8593,-8.8847,-8.8867,-8.8962,-8.8994,-8.9019,-8.9045,-8.9183,-8.9226,-8.8765,-8.8765,-8.8764,0,0,-8.7513,-8.7583,-8.7674,-8.785,-8.7919,-8.8065,-8.7937,-8.8096,-8.8205,-8.8127,-8.833,-8.8373,-8.8472,-8.8706,-8.8812,-8.875,-8.9177,-8.9045,-8.9065,-8.9077,-8.9208,-8.9251,-8.929,-8.8778,-8.8776,-8.8774,0,0,-8.7802,-8.787,-8.8053,-8.8124,-8.8231,-8.8251,-8.8295,-8.8389,-8.8415,-8.8619,-8.8564,-8.8691,-8.892,-8.8993,-8.906,-8.9377,-8.9328,-8.9418,-8.9583,-8.9717,-8.9754,-8.9786,-8.9899,-8.994,-8.9443,-8.9444,-8.9444,0,-8.7934,-8.8155,-8.815,-8.8316,-8.8395,-8.8334,-8.8518,-8.8586,-8.8728,-8.8783,-8.8711,-8.8998,-8.906,-8.9311,-8.9388,-8.9444,-8.9493,-8.9407,-8.9749,-8.9781,-8.9811,-8.9919,-8.9962,-8.9454,-8.9453,-8.9452,-8.9451,0,-8.8312,-8.8465,-8.86,-8.874,-8.8834,-8.9008,-8.9028,-8.9123,-8.9106,-8.9134,-8.9342,-8.9415,-8.9554,-8.9613,-8.9597,-8.9861,-8.9819,-8.9749,-8.9621,-8.9866,-8.9967,-9.0008,-8.9469,-8.9465,-8.9462,-8.946,0,0,-8.8686,-8.8822,-8.8872,-8.8935,-8.9048,-8.9165,-8.9335,-8.9474,-8.9556,-8.9655,-8.9797,-8.9992,-8.9928,-9.0004,-8.9995,-9.0114,-9.036,-9.0028,-9.0031,-9.0088,-9.0656,-9.0709,-9.0757,-9.0328,-9.0336,-9.0342,-9.0648,0,-8.8983,-8.9284,-8.9286,-8.9562,-8.9704,-8.9647,-8.9795,-8.9879,-8.991,-9.0032,-9.0064,-9.0204,-9.0108,-9.0154,-9.0268,-9.0306,-9.0474,-9.0284,-9.0459,-9.0465,-9.0437,-9.081,-9.0867,-9.1152,-9.0688,-9.0694,-9.0699,0,-8.9371,-8.9486,-8.9777,-8.987,-8.9929,-9.0063,-9.019,-9.0308,-9.0402,-9.0415,-9.0502,-9.0475,-9.0646,-9.0513,-9.0748,-9.0619,-9.069,-9.0719,-9.073,-9.0747,-9.0598,-9.0838,-9.1243,-9.1286,-9.0761,-9.0756,-9.0752,0,-8.9616,-8.9842,-9.0046,-9.0102,-9.0214,-9.031,-9.0361,-9.0446,-9.053,-9.064,-9.0694,-9.0821,-9.0892,-9.099,-9.0998,-9.09,-9.1235,-9.1102,-9.1251,-9.1251,-9.1324,-9.132,-9.1748,-9.1369,-9.1369,-9.1368,-9.1367,0,-8.9949,-9.0129,-9.0158,-9.0283,-9.0483,-9.0482,-9.0679,-9.0722,-9.0799,-9.093,-9.0887,-9.1011,-9.1013,-9.1139,-9.1146,-9.134,-9.1371,-9.1386,-9.1386,-9.1391,-9.1389,-9.1438,-9.1419,-9.1379,-9.1377,-9.1374,-9.1372,0,-9.0256,-9.0282,-9.0501,-9.0591,-9.0617,-9.0761,-9.0836,-9.0955,-9.0981,-9.1148,-9.1187,-9.1227,-9.1373,-9.1391,-9.156,-9.1565,-9.1799,-9.1777,-9.1768,-9.1765,-9.1913,-9.1899,-9.2387,-9.2451,-9.2031,-9.2035,-9.2038,0,-9.0467,-9.0605,-9.071,-9.0797,-9.0854,-9.0992,-9.1078,-9.1081,-9.1171,-9.1288,-9.1393,-9.1535,-9.1649,-9.1884,-9.1928,-9.2057,-9.2038,-9.22,-9.2057,-9.2058,-9.2042,-9.2034,-9.2047,-9.2228,-9.2233,-9.2237,-9.224,0,-9.084,-9.0846,-9.0972,-9.1104,-9.1207,-9.131,-9.1407,-9.1479,-9.1494,-9.1597,-9.1747,-9.1836,-9.201,-9.2151,-9.2279,-9.2328,-9.2288,-9.2285,-9.2326,-9.2333,-9.2323,-9.2331,-9.1845,-9.2274,-9.227,-9.2268,-9.2266,-9.2264,-9.1106,-9.1226,-9.132,-9.1461,-9.1535,-9.1626,-9.1743,-9.1784,-9.191,-9.2054,-9.2047,-9.2212,-9.2301,-9.2469,-9.2528,-9.2656,-9.2602,-9.2661,-9.2676,-9.2691,-9.2707,-9.2302,-9.2678,-9.2677,-9.2677,-9.2676,-9.2675,0,-9.1477,-9.1534,-9.1665,-9.1803,-9.1914,-9.1867,-9.1971,-9.2067,-9.2214,-9.2301,-9.2415,-9.2587,-9.2724,-9.2779,-9.2912,-9.3004,-9.2988,-9.3039,-9.3033,-9.3045,-9.2747,-9.2699,-9.305,-9.305,-9.3049,-9.3049,-9.3049,-9.3049,-9.1683,-9.1885,-9.1902,-9.2139,-9.2194,-9.2358,-9.2421,-9.2505,-9.2575,-9.277,-9.2885,-9.292,-9.2994,-9.3133,-9.3256,-9.3268,-9.3319,-9.3379,-9.3383,-9.3103,-9.3066,-9.303,-9.2984,-9.3389,-9.339,-9.367,-9.3672,-9.3674]}]]